OPS 4682 DEB, 38377

Orbit data source: Space-Track

OPS 4682 DEB, 38377 is space debris in LEO originally from a launch on Sat, 03 Apr 1965 UTC launched from the Air Force Western Test Range (AFWTR). Debris objects in space refer to the collection of defunct objects orbiting the Earth. Examples of debris include non-operational satellites, rocket bodies, and fragments generated from explosions, collisions, or faulty payload assembly.

Loading next visibility...
Identifier
38377, 1965-027CE
Orbit
LEO
Country
Flag of USUS
Related business
Manufacturer
Unknown
Mission
Spacecraft
Bus & Motor
Unknown
Mass
Unknown
Launch date (UTC)
1965-04-03 (61 years ago)
Launch vehicle
Unknown
Launch site
Air Force Western Test Range (AFWTR)
Object type
Payload
Rocket body
Debris
Shape & HBR
Unknown shape, 0.1 m
Radar Cross Section
Medium (>0.1 m² and <1 m²)

Expand to show TLE details & history
Last TLE update: 6 days ago

TLE from 6 days ago
0 OPS 4682 DEB
1 38377U 65027CE  26258.07321447  .00000499  00000-0  17088-2 0  9997
2 38377  90.2592  13.4075 0035245 231.6315 128.1637 12.96689351615759
Epoch: 2026-09-15T01:45Z
TLE epoch observation values (Epoch: 2026-09-15T01:45:25.730Z)
Latitude
-0.00002°
Longitude
-6.9941°
Altitude
1,294.693 km
Speed
7.201 km/s
True Right ascension
00h 53m 37s
True Declination
0° 00' 00"
Sunlit
Object was in full shadow at epoch
Visualization orbit readout
Latitude
Unknown
Longitude
Unknown
Altitude
Unknown
Speed
Unknown
Apparent Right ascension
Unknown
Apparent Declination
Unknown
Sunlit
N/A
Visualization observer readout
Local Sidereal Time
10:03:59
Azimuth
Unknown
Elevation
Unknown
Doppler factor
Unknown
Orbital elements
Apogee altitude
1,299.181 km
Perigee altitude
1,245.254 km
Semi-major axis
7,650.354 km
Eccentricity
0.00352
Inclination
90.2592°
RAAN
13.4075°
Arg. of periapsis
231.6315°
True anomaly
128.48038°
Mean anomaly
128.1637°
Eccentric anomaly
128.32213°
Mean motion
3.24355 °/min
Orbital period
110.99 mins
BSTAR
0.0017088
Loading maneuver chart data...
Computing Atmospheric mass density...
Loading historical data...
Loading historical data...
Loading historical data...
Loading historical data...
Loading historical data...
Loading historical data...
Loading historical data...

Documentation

Showing up to 5 results
|